Regional Weather Roundup
Issued by NWS Upton, NY

Current Version | Previous Version | Text Only | Print | Product List | Glossary On
Versions: 1 2 3 4 5 6 7 8 9 10 11 12 13 14 15 16 17 18 19 20 21 22 23 24 25 26 27 28 29 30 31 32 33 34 35 36 37 38 39 40 41 42 43 44 45 46 47 48 49 50
000 ASUS41 KOKX 271404 RWROKX REGIONAL WEATHER ROUNDUP NATIONAL WEATHER SERVICE NEW YORK NY 1000 AM EDT THU AUG 27 2015 NOTE: "FAIR" INDICATES FEW OR NO CLOUDS BELOW 12,000 FEET WITH NO SIGNIFICANT WEATHER AND/OR OBSTRUCTIONS TO VISIBILITY. NYZ071-072-176-178-NJZ106-104-271500- NEW YORK CITY METRO AREA CITY SKY/WX TMP DP RH WIND PRES REMARKS CENTRAL PARK SUNNY 73 52 47 MISG 30.09S LAGUARDIA APRT MOSUNNY 73 53 49 NW9 30.06S KENNEDY INTL MOSUNNY 76 54 46 N13 30.07R NEWARK/LIBERTY MOSUNNY 75 54 47 N8G18 30.07R BRNX BOT. GARD N/A 73 54 49 NW8 30.07F TETERBORO SUNNY 75 53 46 VRB5 30.06S $$ NYZ177-179-078>081-271500- LONG ISLAND NEW YORK CITY SKY/WX TMP DP RH WIND PRES REMARKS FARMINGDALE SUNNY 75 56 51 N3 30.06S ISLIP MOSUNNY 74 56 53 NW8 30.04S SHIRLEY SUNNY 76 56 49 N8 30.06R WESTHAMPTON SUNNY 76 56 49 N8 30.06S MONTAUK POINT N/A 73 57 57 VRB6 30.05R $$ NYZ052-065-067-271500- HUDSON VALLEY CITY SKY/WX TMP DP RH WIND PRES REMARKS WHITE PLAINS MOSUNNY 73 55 53 NW8 30.06R NEWBURGH SUNNY 70 57 64 W12 30.09R MONTGOMERY MOSUNNY 71 57 61 NW10G17 30.08R POUGHKEEPSIE SUNNY 72 55 55 NW7 30.06S ALBANY PTSUNNY 67 56 67 W7 30.07R $$ NJZ001-105-106-008-010-013-015-019>022-104-271500- NEW JERSEY CITY SKY/WX TMP DP RH WIND PRES REMARKS NEWARK/LIBERTY MOSUNNY 75 54 47 N8G18 30.07R TETERBORO SUNNY 75 53 46 VRB5 30.06S CALDWELL SUNNY 72 54 53 NW7 30.08S MORRISTOWN MOSUNNY 73 59 60 N10 30.09R SOMERVILLE SUNNY 72 54 53 N9 30.07S SUSSEX MOSUNNY 69 55 60 NW12 30.10R ANDOVER N/A 69 57 65 VRB6 30.10S TRENTON SUNNY 72 57 59 N8 30.09R MILLVILLE SUNNY 72 58 61 N7 30.10R ATLANTIC CITY MOSUNNY 74 57 55 NW8 30.09R WRIGHTSTOWN SUNNY 71 58 64 NE9 30.07R TOMS RIVER SUNNY 72 57 60 N7 30.09R BELMAR SUNNY 72 54 53 N8 30.08S $$ PAZ047>061-062-071-271500- EASTERN PENNSYLVANIA CITY SKY/WX TMP DP RH WIND PRES REMARKS PHILADELPHIA MOSUNNY 73 54 51 NW9 30.10S ALLENTOWN SUNNY 69 56 62 NW9 30.11S SCRANTON SUNNY 68 51 54 NW16 30.13S $$ CTZ002-004>006-009-010-012-RIZ004-006-007-MAZ004-011-015-271500- SOUTHERN NEW ENGLAND IN CT CITY SKY/WX TMP DP RH WIND PRES REMARKS BRADLEY INTL MOSUNNY 72 55 55 NW10 30.04R HARTFORD SUNNY 72 56 57 N8 30.04S DANBURY SUNNY 70 55 59 NW6 30.08R WTRBRY/OXFORD SUNNY 68 54 60 N8 30.08 BRIDGEPORT SUNNY 74 56 53 NW7 30.05S MERIDEN SUNNY 73 55 53 VRB3 30.05R NEW HAVEN SUNNY 72 56 57 W8 30.05S CHESTER NOT AVBL GROTON SUNNY 74 58 57 NW13 30.02S WILLIMANTIC SUNNY 71 55 56 NW10 30.04S IN RI CITY SKY/WX TMP DP RH WIND PRES REMARKS PROVIDENCE MOSUNNY 74 54 49 NW10 30.02S BLOCK ISLAND SUNNY 72 57 60 NW9 30.03R WESTERLY SUNNY 73 55 53 N13 30.03R IN MA CITY SKY/WX TMP DP RH WIND PRES REMARKS BOSTON MOSUNNY 74 54 49 NW9 29.99S WORCESTER SUNNY 67 54 63 W12 30.04R WESTFIELD MOSUNNY 71 55 56 NW12 30.04R PROVINCETOWN SUNNY 72 55 56 NW14G21 29.99R NANTUCKET MOSUNNY 76 60 57 NW12 30.00R $$ ANZ330-335-338-340-345-350-353-355-271500- COASTAL MARINE OBSERVATIONS STATION/POSITION TIME SKY/WX TEMP WIND PRES VSBY WAVE AIR SEA DIR/SP/G HT/PER (UTC) (F) (DEG/KT/KT) (MB) (MI) (FT/S) NY HARB ENTRANCE 1250 70 76 330/ 10/ 14 1017.5 2/10 4S FIRE IS NOT AVBL 20S FIRE ISLAND 1250 71 74 350/ 8/ 10 1017.3 2/10 GREAT SOUTH BAY NOT AVBL 23SW MTP 1350 69 72 330/ 10/ 12 1017.2 2/10 HUDSON CANYON NOT AVBL KINGS POINT 1300 71 72 N/A EXECUTION ROCKS 1300 71 310/ 6/ 10 N/A CENTRAL LI SOUND NOT AVBL EASTERN LI SOUND 1300 74 71 320/ 8/ 14 N/A ROBBINS REEF 1306 69 N/A $$ >>>>>>>>>>>>>>>>>>>>>>>>>>>> KEY <<<<<<<<<<<<<<<<<<<<<<<<<<< > < > SKY/WX - SKY CONDITION/PRESENT WEATHER < > TMP - TEMPERATURE IN FAHRENHEIT < > DP - DEWPOINT IN FAHRENHEIT < > RH - RELATIVE HUMIDITY IN PERCENT < > WIND - DIRECTION AND SPEED IN MPH < > PRES - MEAN SEA LEVEL PRESSURE IN INCHES OF HG < > WCI - WIND CHILL INDEX < > VSB - VISIBILITY IN MILES < > HX - HEAT INDEX < > TC - TEMPERATURE IN CELSIUS < > VRB - VARIABLE WIND DIRECTION < > < >>>>>>>>>>>>>>>>>>>>>>>>>>>> KEY <<<<<<<<<<<<<<<<<<<<<<<<<<<

USA.gov is the U.S. government's official web portal to all federal, state and local government web resources and services.